Tracking 21076 objects as of 9-Aug-2020
HD Live streaming from Space Station
objects crossing your sky now
Track the most recent launched group of Starlink satellites

CZ-2C DEB

Track CZ-2C DEB now!
10-day predictions


NORAD ID: 37733
Int'l Code: 2011-030D
Perigee: 691.0 km
Apogee: 913.3 km
Inclination: 98.3 °
Period: 100.8 minutes
Semi major axis: 7173 km
RCS: 0.096 m2 (small)
Launch date: July 6, 2011
Source: People's Republic of China (PRC)
Launch site: Jiuquan Satellite Launch Center, China (JSC)

Note: This is SATELLITE DEBRIS
aabbcc
Your satellite tracking list
Your tracking list is empty




NASA's NSSDC Master Catalog

Two Line Element Set (TLE):
1 37733U 11030D   20221.89358247 +.00000282 +00000-0 +11261-3 0  9997
2 37733 098.3282 196.2957 0154951 108.7670 304.6807 14.29016098473259
Source of the keplerian elements: AFSPC